Location: Hohe Wand Kleine Kanzel
(47.8330°N, 16.0170°E)
Time: 14:25:15
(UTC+02:00)

Altair - All Passes

Search period start: 02 August 2021 00:00
Search period end: 12 August 2021 00:00
Orbit: 1502 x 1682 km, 47.2° (Epoch: 02 August)

Date Brightness Start Highest point End Pass type
(mag) Time Alt. Az. Time Alt. Az. Time Alt. Az.
02 Aug - 01:31:45 10° SSW 01:40:12 38° SE 01:48:25 10° ENE visible
02 Aug - 03:34:41 10° WSW 03:44:02 75° SSE 03:53:12 10° E visible
02 Aug - 05:39:23 10° W 05:48:42 86° S 05:57:54 10° E daylight
02 Aug - 07:44:07 10° WNW 07:53:02 57° SSW 08:01:57 10° SE daylight
02 Aug - 09:49:46 10° W 09:56:13 22° SW 10:02:43 10° S daylight
03 Aug - 01:06:49 10° SSW 01:15:07 35° SE 01:23:12 10° ENE visible
03 Aug - 03:09:31 10° WSW 03:18:54 73° SSE 03:28:03 10° ENE visible
03 Aug - 05:14:11 10° W 05:23:32 87° S 05:32:44 10° E daylight
03 Aug - 07:18:56 10° WNW 07:27:56 60° SSW 07:36:54 10° SE daylight
03 Aug - 09:24:24 10° W 09:31:12 24° SW 09:38:02 10° S daylight
04 Aug - 00:41:55 10° SSW 00:50:04 33° SE 00:57:59 10° ENE visible
04 Aug - 02:44:22 10° WSW 02:53:45 70° SSE 03:02:53 10° ENE visible
04 Aug - 04:48:59 10° W 04:58:22 87° S 05:07:34 10° E visible
04 Aug - 06:53:46 10° WNW 07:02:49 63° SSW 07:11:49 10° SE daylight
04 Aug - 08:59:05 10° W 09:06:10 26° SW 09:13:19 10° S daylight
05 Aug - 00:17:04 10° SSW 00:25:00 30° SE 00:32:43 10° E visible
05 Aug - 02:19:13 10° WSW 02:28:37 68° SSE 02:37:44 10° ENE visible
05 Aug - 04:23:47 10° W 04:33:11 88° S 04:42:24 10° E visible
05 Aug - 06:28:35 10° WNW 06:37:42 66° SSW 06:46:44 10° SE daylight
05 Aug - 08:33:46 10° W 08:41:08 28° SW 08:48:32 10° S daylight
05 Aug - 23:52:14 10° S 23:59:57 28° SE 00:07:28 10° E visible
06 Aug - 01:54:05 10° SW 02:03:28 65° SSE 02:12:35 10° ENE visible
06 Aug - 03:58:35 10° W 04:08:00 88° S 04:17:14 10° E visible
06 Aug - 06:03:24 10° WNW 06:12:34 69° SSW 06:21:38 10° ESE daylight
06 Aug - 08:08:29 10° W 08:16:06 30° SW 08:23:44 10° SSE daylight
06 Aug - 23:27:26 10° S 23:34:54 26° SE 23:42:10 10° E visible
07 Aug - 01:28:58 10° SW 01:38:20 63° SSE 01:47:25 10° ENE visible
07 Aug - 03:33:22 10° W 03:42:50 87° S 03:52:04 10° E visible
07 Aug - 05:38:13 10° WNW 05:47:26 71° SSW 05:56:32 10° ESE daylight
07 Aug - 07:43:13 10° WNW 07:51:04 33° SW 07:58:54 10° SSE daylight
07 Aug - 23:02:41 10° S 23:09:51 24° SE 23:16:51 10° E visible
08 Aug - 01:03:51 10° SW 01:13:13 60° SSE 01:22:16 10° ENE visible
08 Aug - 03:08:10 10° W 03:17:39 87° S 03:26:54 10° E visible
08 Aug - 05:13:01 10° WNW 05:22:17 74° SSW 05:31:24 10° ESE daylight
08 Aug - 07:17:58 10° WNW 07:26:01 35° SW 07:34:02 10° SSE daylight
08 Aug - 22:37:58 10° S 22:44:49 22° SE 22:51:30 10° E visible
09 Aug - 00:38:45 10° SW 00:48:05 57° SSE 00:57:06 10° ENE visible
09 Aug - 02:42:57 10° W 02:52:29 86° S 03:01:44 10° E visible
09 Aug - 04:47:50 10° W 04:57:09 76° SSW 05:06:17 10° ESE visible
09 Aug - 06:52:44 10° WNW 07:00:58 38° SW 07:09:08 10° SSE daylight
09 Aug - 22:13:19 10° S 22:19:47 20° SE 22:26:06 10° E visible
10 Aug - 00:13:41 10° SW 00:22:58 54° SSE 00:31:56 10° ENE visible
10 Aug - 02:17:44 10° WSW 02:27:18 85° S 02:36:34 10° E visible
10 Aug - 04:22:38 10° W 04:32:00 78° SSW 04:41:09 10° ESE visible
10 Aug - 06:27:31 10° WNW 06:35:54 41° SW 06:44:13 10° SSE daylight
10 Aug - 08:36:12 10° WSW 08:38:28 11° WSW 08:40:43 10° SW daylight
10 Aug - 21:48:44 10° SSE 21:54:45 18° SE 22:00:39 10° E visible
10 Aug - 23:48:37 10° SW 23:57:51 51° SSE 00:06:46 10° ENE visible
11 Aug - 01:52:32 10° WSW 02:02:08 84° S 02:11:24 10° E visible
11 Aug - 03:57:26 10° W 04:06:51 80° SSW 04:16:02 10° ESE visible
11 Aug - 06:02:17 10° WNW 06:10:50 43° SW 06:19:16 10° SSE daylight
11 Aug - 08:09:57 10° W 08:13:29 13° WSW 08:17:01 10° SSW daylight
11 Aug - 21:24:15 10° SSE 21:29:44 17° SE 21:35:07 10° E visible
11 Aug - 23:23:34 10° SW 23:32:44 49° SE 23:41:36 10° ENE visible
